Regional Weather Roundup
Issued by NWS

Home | Current Version | Previous Version | Graphics & Text | Print | Product List | Glossary Off
Versions: 1 2 3 4 5 6 7 8 9 10 11 12 13 14 15 16 17 18 19 20 21 22 23 24 25 26 27 28 29 30 31 32 33 34 35 36 37 38 39 40 41 42 43 44 45 46 47 48 49 50

000
ASUS43 KMKX 182211
RWRWI

WISCONSIN REGIONAL WEATHER ROUNDUP
NATIONAL WEATHER SERVICE MILWAUKEE/SULLIVAN WI
500 PM CDT THU SEP 18 2014

NOTE: "FAIR" INDICATES FEW OR NO CLOUDS BELOW 12,000 FEET WITH NO
SIGNIFICANT WEATHER AND/OR OBSTRUCTIONS TO VISIBILITY.

WIZ001-002-006>008-014>016-023>028-182300-
NORTHWEST WISCONSIN

CITY           SKY/WX    TMP DP  RH WIND       PRES   REMARKS
SUPERIOR ARPT  CLOUDY    49  44  81 NE9       30.09S
ASHLAND        CLOUDY    52  45  77 N7        30.10F
HAYWARD        SUNNY     59  51  75 SE5       30.07F
SIREN          SUNNY     64  52  64 SE8       30.04F
RICE LAKE      SUNNY     61  51  70 SE7       30.08F
LADYSMITH      SUNNY     60  51  72 S6        30.11F
EAU CLAIRE     NOT AVBL
MENOMONIE      CLEAR     67  54  64 E9        30.06F
NEW RICHMOND   SUNNY     68  55  63 E7        30.03F
OSCEOLA        SUNNY     69  57  66 SE8       30.05S
$$

WIZ003>005-009-010-017-018-182300-
NORTH CENTRAL WISCONSIN

CITY           SKY/WX    TMP DP  RH WIND       PRES   REMARKS
WOODRUFF       MOSUNNY   57  49  75 S6        30.11F
RHINELANDER    CLOUDY    56  46  69 S8        30.13F
EAGLE RIVER    PTSUNNY   54  43  67 S5        30.12F
LAND O LAKES   CLOUDY    54  44  69 S6        30.13S
PHILLIPS       SUNNY     56  49  75 SE7       30.10F
TOMAHAWK       SUNNY     56  47  71 CALM      30.13S
MEDFORD        SUNNY     55  48  79 SE5       30.12F
MERRILL        SUNNY     57  48  71 SW5       30.12F
$$

WIZ029-030-035-036-043>047-182300-
CENTRAL WISCONSIN

CITY           SKY/WX    TMP DP  RH WIND       PRES   REMARKS
WAUSAU         SUNNY     57  48  72 S3        30.12F
MOSINEE        SUNNY     55  50  82 SE5       30.14F
MARSHFIELD     MOSUNNY   56  49  77 E7        30.12F
STEVENS POINT  SUNNY     55  46  72 CALM      30.13F
WAUPACA        SUNNY     61  49  64 CALM      30.14F
WAUTOMA        SUNNY     63  51  64 E6        30.13F
WISC RAPIDS    SUNNY     61  50  67 E7        30.13F
CAMP DOUGLAS   MOSUNNY   63  55  77 E8        30.10F
$$

WIZ011>013-019>022-031-037>040-048>050-182300-
NORTHEAST WISCONSIN

CITY           SKY/WX    TMP DP  RH WIND       PRES   REMARKS
ANTIGO         CLOUDY    55  47  72 S5        30.14F
STURGEON BAY   CLOUDY    54  45  71 N5        30.16F
GREEN BAY      PTSUNNY   59  47  64 CALM      30.15F
MANITOWOC      CLOUDY    56  48  74 SE7       30.16S
APPLETON       PTSUNNY   59  46  63 VRB3      30.15F
CLINTONVILLE   SUNNY     57  45  62 CALM      30.14F
OSHKOSH        SUNNY     59  50  72 VRB5      30.14S
$$

WIZ032>034-041-042-053>061-182300-
SOUTHWEST WISCONSIN

CITY           SKY/WX    TMP DP  RH WIND       PRES   REMARKS
LA CROSSE      PTSUNNY   72  56  57 SE9       30.07F
SPARTA         SUNNY     65  52  62 SE6       30.10S
VIROQUA        MOCLDY    67  54  63 SE5       30.10S
BOSCOBEL       MOSUNNY   70  56  61 VRB6      30.08F
PRAIRIE DU CHI MOSUNNY   71  51  47 E5        30.07S
PLATTEVILLE    FAIR      70  53  55 CALM      30.09F
$$

WIZ056-057-062-063-064-067-068-182300-
SOUTH CENTRAL WISCONSIN

CITY           SKY/WX    TMP DP  RH WIND       PRES   REMARKS
BARABOO/DELLS  SUNNY     63  51  64 E6        30.12S
LONE ROCK      SUNNY     69  55  60 E9        30.10F
WATERTOWN      SUNNY     65  55  69 E5        30.11F
MADISON        PTSUNNY   66  53  63 VRB5      30.12F
MIDDLETON      FAIR      66  52  61 E7        30.12F
MONROE         MOSUNNY   66  52  59 E3        30.11S
JANESVILLE     PTSUNNY   70  54  56 SE12      30.10F
$$

WIZ051-052-058>065-066-070>072-182300-
SOUTHEAST WISCONSIN

CITY           SKY/WX    TMP DP  RH WIND       PRES   REMARKS
MILWAUKEE      PTSUNNY   57  51  80 NE9       30.15F
WAUKESHA       MOSUNNY   59  50  72 E7        30.15S
MILWAUKEE/TIMM CLOUDY    57  48  72 CALM      30.15F
RACINE         CLOUDY    58  52  80 N9        30.16F
BURLINGTON     SUNNY     60  52  73 E6        30.14R
KENOSHA        CLOUDY    59  53  80 NE8       30.15S
FOND DU LAC    SUNNY     62  51  67 NE6       30.14S
SHEBOYGAN      PTSUNNY   56  48  74 E7        30.15F
WEST BEND      CLOUDY    59  50  72 E6        30.15S
JUNEAU         MOSUNNY   62  53  71 N5        30.14S
$$

LSZ147-162-182300-
LAKE SUPERIOR

STATION/POSITION TIME  TEMP    WIND        PRES    WAVE
                       AIR SEA DIR/SP/G            HT/PER
                 (UTC) (F)     (DEG/KT/KT) (MB)    (FT/S)
W MID LAKE BUOY  2150   45 47   60/ 10/ 12 1020.3F   1/ 3
DEVILS ISLAND    2200   46      50/  9/  9 1020.3F
PORT WING        2100   50      40/ 13/ 16 1019.3F
SAXON HARBOR     2100   50      40/  6/  8 1020.3F
$$

LMZ867-665-643>646-182300-
LAKE MICHIGAN

STATION/POSITION TIME  TEMP    WIND        PRES    WAVE
                       AIR SEA DIR/SP/G            HT/PER
                 (UTC) (F)     (DEG/KT/KT) (MB)    (FT/S)
N MID LAKE BUOY  2150   52 59   50/  4/  4 1021.9F   1
NORTHPORT PIER   2100   53     130/  5/  7 1022.0S
KEWAUNEE LAKESHO 2100   54      80/  5/  8 1020.6F
SHEBOYGAN LAKESH 2200   52 49   40/ 10/ 10 1021.6F
PORT WASHINGTON  2140   58      70/  5/  8 1021.7S
ATWATER BUOY     2200   56      10/  8/ 12 1021.8F
MILWAUKEE LAKESH 2100   56      40/  7/ 10   N/A
S MID LAKE BUOY  2150   61 65   20/ 12/ 12 1020.3F   2/ 6
KENOSHA   LAKESH 2200   56     360/ 10/ 11 1020.3S
$$

TC  - TEMPERATURE IN CELSIUS
VSB - VISIBILITY IN STATUTE MILES
WCI - WIND CHILL INDEX
HX  - HEAT INDEX




USA.gov is the U.S. government's official web portal to all federal, state and local government web resources and services.